Погода в Вёздином

Россия / Республика Коми     62°09′42″N   49°52′23″E
темп.,
°C
ветер,
м/с
пор.,
м/с
влажн.,
%
обл.,
%
осадки,
мм/ч
давл.,
гПа
погр.,
м
29 января, сб
сб2900:00−13ю31094100 0.0 1013384
03:00−12ю31094100 0.0 1012403
06:00−12ю31094100 0.1 1012430
09:00−11ю31093100 0.2 1011442
12:00−10ю4119193 0.0 1011509
15:00−9ю41093100 0.0 1011488
18:00−9ю41194100 0.1 1010535
21:00−9ю41194100 0.1 1009533
30 января, вс
вс3000:00−10ююв31095100 0.1 1008418
03:00−10ююв3896100 0.1 1008301
06:00−11ююв289694 0.0 1007266
09:00−14юв269880 0.1 1008147
12:00−11ююв259397 0.0 1008243
15:00−13вюв239866 0.0 100862
18:00−14юв279981 0.0 1009123
21:00−15юв279983 0.1 1009132
31 января, пн
пн3100:00−18вюв1210086 0.0 101037
03:00−18вюв2410085 0.0 101073
06:00−19вюв2410086 0.0 101171
09:00−18вюв269981 0.1 1012111
12:00−12юв259497 0.0 1012191
15:00−13вюв259873 0.0 1012115
18:00−15вюв299978 0.0 1013151
21:00−15вюв289977 0.0 1013137
1 февраля, вт
вт100:00−15в289982 0.0 1012135
03:00−14в3109896 0.1 1011193
06:00−13в41297100 0.0 1009295
09:00−10вюв41394100 0.3 1008406
12:00−7вюв41193100 0.3 1006504
15:00−6вюв41195100 0.8 1004564
18:00−5вюв41295100 0.5 1002559
21:00−4юв41295100 1.1 1001646
2 февраля, ср
ср200:00−2юв41196100 0.4 1000587
03:00−2ююв41097100 1.2 1000689
06:00−3ююв3997100 0.5 1001536
09:00−3ю3896100 1.2 1002684
12:00−4ю4891100 0.3 1004729
15:00−5ю4892100 0.4 1006688
18:00−6ю41093100 0.1 1009502
21:00−8ю3995100 0.3 1010367